Lexington Weather

Lexington, Massachusetts, USA

46°F
10/26/2020 6:03am 
  • Lexington Conditions: Light rain, Overcast
  • Temperature: 46.0°F / 7.8°CWarmer 0.9°F than last hour.
  • Dew Point: 41.2°FIncreased 1.5°Fsince last hour.
  • Relative Humidity: 83%Increased 2.0% since last hour.
  • Wind: Wind from SSE SSE 2 mph, 10-min avg: 1 mph, gust: 3 mph
  • Barometer: 30.27 in Steady
  • Visibility: 10 miles
  • Rain Today: 0.00 in
  •   

Regional Weather Roundup
for Boston / Norton, MA

        
000
ASUS41 KBOX 210305
RWRBOX

REGIONAL WEATHER ROUNDUP
NATIONAL WEATHER SERVICE BOSTON/NORTON MA
1100 PM EDT TUE OCT 20 2020

NOTE:  "FAIR" INDICATES FEW OR NO CLOUDS BELOW 12,000 FEET WITH NO 
SIGNIFICANT WEATHER AND/OR OBSTRUCTIONS TO VISIBILITY.

MAZALL-210400-
EASTERN MASSACHUSETTS
  
CITY           SKY/WX    TMP DP  RH WIND       PRES   REMARKS
BOSTON         FOG       59  59 100 S3        30.28S VSB 1/4          
BEVERLY        FOG       59  59 100 CALM      30.27S VSB 1/4          
LAWRENCE       FOG       59  58  96 CALM      30.29S VSB 1/2          
BEDFORD        FOG       56  56 100 CALM      30.27R VSB 1/2          
BLUE HILL        N/A     60  60 100 S7        30.27S                  
NORWOOD        FOG       61  59  93 CALM      30.27S VSB 1/4          
MARSHFIELD     FOG       61  61 100 CALM      30.27S VSB<1/4          
PLYMOUTH       FOG       59  58  96 CALM      30.27S VSB 1/2          
TAUNTON        CLOUDY    63  61  93 CALM      30.27S FOG              
NEW BEDFORD    FOG       61  60  97 CALM      30.27R VSB 1/2          
$$

MAZALL-210400-
CAPE COD AND THE ISLANDS
  
CITY           SKY/WX    TMP DP  RH WIND       PRES   REMARKS
FALMOUTH       FOG       61  61 100 CALM      30.28R VSB 1/2          
HYANNIS        FOG       61  61 100 N5        30.27R VSB 3/4          
CHATHAM        FOG       64  62  93 VRB3      30.29R VSB 3/4          
PROVINCETOWN   CLOUDY    60  60 100 SE7       30.28S                  
NANTUCKET      LGT RAIN N/A N/A N/A S5        30.28S VSB 1/2          
MARTHAS VNYRD  FOG       64  64 100 SW3       30.28R VSB 1/2          
$$
 
MAZALL-210400-
CENTRAL AND WESTERN MASSACHUSETTS
  
CITY           SKY/WX    TMP DP  RH WIND       PRES   REMARKS
WORCESTER      PTCLDY    62  59  90 N3        30.29R                  
FITCHBURG      CLOUDY    59  58  96 N3        30.29R                  
ORANGE         FOG       55  55 100 CALM      30.29R VSB 1/2          
SPRINGFIELD    MOCLDY    60  60 100 CALM      30.26S                  
WESTFIELD      PTCLDY    59  59 100 CALM      30.27R                  
NORTH ADAMS    CLOUDY    60  57  89 CALM      30.28S                  
PITTSFIELD     CLOUDY    59  56  89 CALM      30.28R                  
$$
 
RIZALL-210400-
RHODE ISLAND
  
CITY           SKY/WX    TMP DP  RH WIND       PRES   REMARKS
PROVIDENCE     FOG       60  60 100 CALM      30.28S VSB 1/4          
NEWPORT        FOG       61  61 100 CALM      30.28R VSB 1/2          
BLOCK ISLAND   FOG       59  58  96 S3        30.28S VSB 1/2          
SMITHFIELD     FOG       60  60 100 CALM        N/A  VSB 1/4          
WESTERLY       CLOUDY    62  60  93 CALM      30.28S FOG              
$$
 
CTZALL-210400-
CONNECTICUT
  
CITY           SKY/WX    TMP DP  RH WIND       PRES   REMARKS
BRADLEY INTL   MOCLDY    61  59  93 CALM      30.26S                  
HARTFORD       PTCLDY    57  55  93 CALM      30.26S FOG              
BRIDGEPORT     CLOUDY    63  61  93 CALM      30.27R FOG              
DANBURY        CLOUDY    56  56 100 CALM      30.28S                  
GROTON         CLOUDY    63  62  97 S3        30.27S                  
NEW HAVEN      FOG       60  60 100 CALM      30.27R VSB 1/4          
CHESTER        FOG       59  59 100 CALM      30.27S VSB<1/4          
MERIDEN        FOG       59  58  96 SE3       30.27R VSB 1/4          
WILLIMANTIC    FOG       60  60 100 CALM      30.28R VSB 1/4          
OXFORD         FOG       57  57 100 CALM      30.28S VSB 1/4          
$$

MEZ002-015-021-024-NHZ003-005-008-011-012-014-VTZ005-008-210400-
NORTHERN NEW ENGLAND
  
CITY           SKY/WX    TMP DP  RH WIND       PRES   REMARKS
PORTLAND ME    CLOUDY    56  56 100 N3        30.31S                  
BANGOR ME      MOCLDY    54  51  90 N7        30.34R                  
CONCORD NH     CLOUDY    59  55  87 NW5       30.29R                  
MANCHESTER NH  CLOUDY    62  58  86 N3        30.27R                  
NASHUA NH      CLOUDY    58  58 100 NW3       30.29R                  
PORTSMOUTH NH  FOG       58  57  99 NE3       30.27S VSB 1/2          
JAFFREY NH     CLOUDY    57  55  93 CALM      30.30R                  
KEENE NH       CLOUDY    59  58  96 NW3       30.28S                  
BURLINGTON VT  CLOUDY    48  42  80 N5        30.35S                  
MT. WASHINGTON FOG       41  41 100 SW21        N/A  VSB 0   WCI  32  
$$

NYZ052-076-210400-
EASTERN NEW YORK
  
CITY           SKY/WX    TMP DP  RH WIND       PRES   REMARKS
ALBANY         DRIZZLE   49  49 100 N8        30.32R FOG              
NEW YORK CITY  FOG       63  60  90 S6        30.26R VSB 1/2          
$$
 
ANZALL-210400-
MARINE OBSERVATIONS
  
STATION/POSITION TIME  TEMP    WIND        PRES    VSBY  WAVE
                       AIR SEA DIR/SP/G                  HT/PER
                 (UTC) (F)     (DEG/KT/KT) (MB)    (MI)  (FT/S)
BOSTON BUOY      0250   58 58  150/  4/  6 1024.3R         2/ 9
BUZZARDS BAY     0200           20/  4/  4 1026.0R
NANTUCKET SOUND  0240      61  230/  8/ 10   N/A
MASS BAY-STELLWA 0204   58 58   80/  2/  4 1024.8R  1 7/8  3/ 8
ISLE OF SHOALS   0200   57     160/  4/  5 1024.9R
S OF BLOCK IS    0226      63                N/A           4/10
$$

......................KEY.........................
  SKY/WX - SKY CONDITION/PRESENT WEATHER
  TMP    - TEMPERATURE IN FAHRENHEIT
  DWPT   - DEWPOINT IN FAHRENHEIT
  RH     - RELATIVE HUMIDITY IN PERCENT
  WIND   - DIRECTION AND SPEED IN MPH
  PRES   - MEAN SEA LEVEL PRESSURE IN INCHES OF HG
  WCI    - WIND CHILL INDEX
  VSB    - VISIBILITY IN MILES
  HX     - HEAT INDEX
  TC     - TEMPERATURE IN CELSIUS
  VRB    - VARIABLE WIND DIRECTION
  N/A    - NOT AVAILABLE
  
      

Other recent Regional Weather Roundups

Mon Oct 26, 5:04am

Mon Oct 26, 4:04am

Mon Oct 26, 3:04am

Mon Oct 26, 2:04am

Mon Oct 26, 1:04am

Mon Oct 26, 12:04am

Sun Oct 25, 11:05pm

Sun Oct 25, 10:04pm

Sun Oct 25, 9:04pm

Sun Oct 25, 8:04pm

Sun Oct 25, 7:04pm

Sun Oct 25, 6:04pm

Sun Oct 25, 5:04pm

Sun Oct 25, 4:05pm

Sun Oct 25, 3:04pm

Sun Oct 25, 2:04pm

Sun Oct 25, 1:04pm

Sun Oct 25, 12:04pm

Sun Oct 25, 11:04am

Sun Oct 25, 10:04am

Sun Oct 25, 9:04am

Sun Oct 25, 8:04am

Sun Oct 25, 7:04am

Sun Oct 25, 6:04am

Sun Oct 25, 5:04am

Sun Oct 25, 4:04am

Sun Oct 25, 3:04am

Sun Oct 25, 2:04am

Sun Oct 25, 1:05am

Sun Oct 25, 12:04am

Sat Oct 24, 11:04pm

Sat Oct 24, 10:04pm

Sat Oct 24, 9:04pm

Sat Oct 24, 8:04pm

Sat Oct 24, 7:04pm

Sat Oct 24, 6:04pm

Sat Oct 24, 5:05pm

Sat Oct 24, 4:04pm

Sat Oct 24, 3:04pm

Sat Oct 24, 2:04pm

Sat Oct 24, 1:05pm

Sat Oct 24, 12:04pm

Sat Oct 24, 11:05am

Sat Oct 24, 10:05am

Sat Oct 24, 9:04am

Sat Oct 24, 8:04am

Sat Oct 24, 7:04am

Sat Oct 24, 6:04am

Sat Oct 24, 5:04am

Sat Oct 24, 4:04am

Sat Oct 24, 3:04am

Sat Oct 24, 2:04am

Sat Oct 24, 1:05am

Sat Oct 24, 12:04am

Fri Oct 23, 11:04pm

Fri Oct 23, 10:04pm

Fri Oct 23, 9:04pm

Fri Oct 23, 8:05pm

Fri Oct 23, 7:04pm

Fri Oct 23, 6:04pm

Fri Oct 23, 5:05pm

Fri Oct 23, 4:04pm

Fri Oct 23, 3:04pm

Fri Oct 23, 2:05pm

Fri Oct 23, 1:04pm

Fri Oct 23, 12:04pm

Fri Oct 23, 11:04am

Fri Oct 23, 10:04am

Fri Oct 23, 9:04am

Fri Oct 23, 8:04am

Fri Oct 23, 7:04am

Fri Oct 23, 6:04am

Fri Oct 23, 5:04am

Fri Oct 23, 4:04am

Fri Oct 23, 3:04am

Fri Oct 23, 2:04am

Fri Oct 23, 1:04am

Fri Oct 23, 12:04am

Thu Oct 22, 11:04pm

Thu Oct 22, 10:04pm

Thu Oct 22, 9:05pm

Thu Oct 22, 8:04pm

Thu Oct 22, 7:05pm

Thu Oct 22, 6:04pm

Thu Oct 22, 5:04pm

Thu Oct 22, 4:05pm

Thu Oct 22, 3:04pm

Thu Oct 22, 2:05pm

Thu Oct 22, 1:04pm

Thu Oct 22, 12:04pm

Thu Oct 22, 11:04am

Thu Oct 22, 10:05am

Thu Oct 22, 9:04am

Thu Oct 22, 8:05am

Thu Oct 22, 7:04am

Thu Oct 22, 6:04am

Thu Oct 22, 5:04am

Thu Oct 22, 4:04am

Thu Oct 22, 3:04am

Thu Oct 22, 2:04am

Thu Oct 22, 1:04am

Thu Oct 22, 12:04am

Wed Oct 21, 11:05pm

Wed Oct 21, 10:04pm

Wed Oct 21, 9:04pm

Wed Oct 21, 8:04pm

Wed Oct 21, 7:04pm

Wed Oct 21, 6:04pm

Wed Oct 21, 5:05pm

Wed Oct 21, 4:04pm

Wed Oct 21, 3:04pm

Wed Oct 21, 2:05pm

Wed Oct 21, 1:04pm

Wed Oct 21, 12:04pm

Wed Oct 21, 11:04am

Wed Oct 21, 10:04am

Wed Oct 21, 9:04am

Wed Oct 21, 8:04am

Wed Oct 21, 7:04am

Wed Oct 21, 6:04am

Wed Oct 21, 5:04am

Wed Oct 21, 4:04am

Wed Oct 21, 3:04am

Wed Oct 21, 2:04am

Wed Oct 21, 1:04am

Wed Oct 21, 12:04am

Tue Oct 20, 10:04pm

Tue Oct 20, 9:04pm

Tue Oct 20, 8:05pm

Tue Oct 20, 7:04pm

Tue Oct 20, 6:04pm

Tue Oct 20, 5:05pm

Tue Oct 20, 4:04pm

Tue Oct 20, 3:05pm

Tue Oct 20, 2:07pm

Tue Oct 20, 1:04pm

Tue Oct 20, 12:04pm

Tue Oct 20, 11:04am

Tue Oct 20, 10:05am

Tue Oct 20, 9:04am

Tue Oct 20, 8:04am

Tue Oct 20, 7:04am

Tue Oct 20, 6:04am

Tue Oct 20, 5:04am

Tue Oct 20, 4:04am

Tue Oct 20, 3:04am

Tue Oct 20, 2:04am

Tue Oct 20, 1:04am

Tue Oct 20, 12:04am

Mon Oct 19, 11:04pm

Mon Oct 19, 10:04pm

Mon Oct 19, 9:04pm

Mon Oct 19, 8:04pm

Mon Oct 19, 7:04pm

Mon Oct 19, 6:04pm

Mon Oct 19, 5:04pm

Mon Oct 19, 4:04pm

Mon Oct 19, 3:04pm

Mon Oct 19, 2:04pm

Mon Oct 19, 1:05pm

Mon Oct 19, 12:04pm

Mon Oct 19, 11:04am

Mon Oct 19, 10:04am

Mon Oct 19, 9:04am

Mon Oct 19, 8:04am

Mon Oct 19, 7:04am

Mon Oct 19, 6:04am

Mon Oct 19, 5:04am

Meta data:

ID: 09444def-4730-4092-841f-f452115292e0
Link: https://api.weather.gov/products/09444def-4730-4092-841f-f452115292e0